Regional Weather Roundup
Issued by NWS

Home | Current Version | Previous Version | Text Only | Print | Product List | Glossary On
Versions: 1 2 3 4 5 6 7 8 9 10 11 12 13 14 15 16 17 18 19 20 21 22 23 24 25 26 27 28 29 30 31 32 33 34 35 36 37 38 39 40 41 42 43 44 45 46 47 48 49 50
000
ASUS44 KMEG 240510
RWRTN
TENNESSEE HOURLY STATE WEATHER ROUNDUP
NATIONAL WEATHER SERVICE MEMPHIS TN
1100 PM CST MON JAN 23 2017

TNZ002-004-019-021-049-052-054-088>092-240600-
WEST TENNESSEE

CITY           SKY/WX    TMP DP  RH WIND       PRES   REMARKS
MEMPHIS INTL   CLEAR     43  38  82 CALM      29.87R
NWS MEMPHIS      N/A     38 N/A N/A MISG        N/A
JACKSON        CLEAR     35  34  96 SW3       29.88R
DYERSBURG      CLEAR     37  34  87 CALM      29.88R
UNION CITY     CLEAR     36  36 100 CALM      29.86S
PARIS          CLOUDY    39  34  81 CALM      29.86S
HUNTINGDON     CLOUDY    43  36  75 N3        29.85S
$$

TNZ008-025-027-028-033-062-065-066-240600-
NORTH MIDDLE TENNESSEE

CITY           SKY/WX    TMP DP  RH WIND       PRES   REMARKS
NASHVILLE      CLOUDY    43  34  70 VRB7      29.85R
PORTLAND       CLOUDY    41  36  81 NW6       29.83S
CLARKSVILLE    CLOUDY    42  34  73 NW7       29.86R
SMYRNA         CLOUDY    42  36  79 NW10      29.85S
GALLATIN       CLOUDY    43  36  75 W6        29.86F
CROSSVILLE     CLOUDY    38  37  97 W8        29.76R FOG     WCI  32
$$

TNZ061-075-076-078-094-096-097-240600-
SOUTH MIDDLE TENNESSEE

CITY           SKY/WX    TMP DP  RH WIND       PRES   REMARKS
TULLAHOMA      CLOUDY    41  37  87 N8        29.82R
WINCHESTER     CLOUDY    43  37  81 N6        29.79S
MCMINNVILLE    CLOUDY    39  39 100 VRB5        N/A
COLUMBIA       CLOUDY    43  39  87 NW7       29.83S
SHELBYVILLE    CLOUDY    45  39  81 NW8       29.84R
$$

TNZ017-018-042-046-047-240600-
NORTHEAST TENNESSEE

CITY           SKY/WX    TMP DP  RH WIND       PRES   REMARKS
TRI CITIES     CLOUDY    47  42  83 W14       29.62R
ELIZABETHTON   CLOUDY    46  43  87 VRB7G16   29.60R
$$

TNZ012-013-036-069-073-074-240600-
CENTRAL EAST TENNESSEE

CITY           SKY/WX    TMP DP  RH WIND       PRES   REMARKS
KNOXVILLE      MOCLDY    45  39  79 W12       29.73R
OAK RIDGE      CLOUDY    44  40  85 VRB7      29.74R
GATLINBURG     CLOUDY    45  39  81 SW10      29.71R
MORRISTOWN     CLOUDY    46  43  87 NW9G15    29.68S
JACKSBORO      CLOUDY    45  41  87 VRB5G13   29.75R
$$

TNZ083-085-099-240600-
SOUTHEAST TENNESSEE

CITY           SKY/WX    TMP DP  RH WIND       PRES   REMARKS
CHATTANOOGA    CLOUDY    46  39  76 NW12      29.79R
$$

SKY/WX REPORTED AS FAIR MEANS FEW OR NO CLOUDS BELOW
12 THOUSAND FEET.




USA.gov is the U.S. government's official web portal to all federal, state and local government web resources and services.